User: anonymous   Login
Location: Unspecified
(0.0000°N, 0.0000°E)
Time: 18:02:30
(UTC+00:00)
Language:

STARLINK-3679 - Orbit

View from above orbital plane
View from above orbital plane
View from above satellite
View from above satellite

Ground track
Ground track

The orbit is defined by the following mean orbital elements,

1 51973U          26145.41815294 +.00000000 +00000-0 +17791-4 0 00009
2 51973  53.1611  40.0929 0001375  95.0240 265.0918 15.31701723    05
Epoch (UTC): 25 May 2026 10:02:08
Eccentricity: 0.0001375
inclination: 53.1611°
perigee height: 470 km
apogee height: 472 km
right ascension of ascending node: 40.0929°
argument of perigee: 95.0240°
revolutions per day: 15.31701723
mean anomaly at epoch: 265.0918°

The dashed part of the orbit path shows where the satellite is in the earth's shadow,  

DLR